Regional Weather Roundup
Issued by NWS

Home | Current Version | Previous Version | Graphics & Text | Print | Product List | Glossary On
Versions: 1 2 3 4 5 6 7 8 9 10 11 12 13 14 15 16 17 18 19 20 21 22 23 24 25 26 27 28 29 30 31 32 33 34 35 36 37 38 39 40 41 42 43 44 45 46 47 48 49 50
000
ASUS43 KLOT 112000
RWRIL

ILLINOIS REGIONAL WEATHER ROUNDUP
NATIONAL WEATHER SERVICE CHICAGO/ROMEOVILLE IL
300 PM CDT FRI JUL 11 2014

NOTE: "FAIR" INDICATES FEW OR NO CLOUDS BELOW 12,000 FEET WITH NO
SIGNIFICANT WEATHER AND/OR OBSTRUCTIONS TO VISIBILITY.

* THESE STATIONS ARE NOT UNDER NWS QUALITY CONTROL. THEY ALSO MAY NOT
  REPORT WEATHER SUCH AS PRECIPITATION OR FOG.

ILZ001-002-007-009-015-016-024-112100-
NORTHWEST ILLINOIS

CITY           SKY/WX    TMP DP  RH WIND       PRES   REMARKS
MOLINE         PTSUNNY   81  65  58 S16G22    30.07F HX  83
STERLING*      CLOUDY    79  63  57 SE10G18   30.10F HX  80
$$

ILZ003-004-008-010-011-017-018-112100-
NORTH CENTRAL ILLINOIS

CITY           SKY/WX    TMP DP  RH WIND       PRES   REMARKS
ROCKFORD       CLOUDY    75  55  49 S12       30.13F
FREEPORT*      CLOUDY    73  59  61 SE12      30.12F
$$

ILZ005-006-012>014-019>023-112100-
NORTHEAST ILLINOIS

CITY           SKY/WX    TMP DP  RH WIND       PRES   REMARKS
CHICAGO-OHARE  CLOUDY    79  50  36 S9        30.14F
CHICAGO-MIDWAY PTSUNNY   81  49  32 S9        30.15F HX  80
AURORA         PTSUNNY   78  55  44 SE10      30.15F
WAUKEGAN       PTSUNNY   72  54  53 SE9       30.15F
DUPAGE AIRPORT CLOUDY    80  53  39 S8        30.15F HX  80
WHEELING       CLOUDY    80  49  33 SW7       30.15F
NORTHERLY ISL    N/A     73  60  63 E10         N/A
$$

LMZ740>746-112100-
SOUTHERN LAKE MICHIGAN

STATION/POSITION SKY/WX   TEMP    WIND        PRES    VSBY  WAVE
                          AIR SEA DIR/SP/G                  HT/PER
                          (F)     (DEG/KT/KT) (MB)    (MI)  (FT/S)
SOUTHERN BUOY              63 60  170/  4/  4 1022.4F         1
WAUKEGAN HARBOR            70     140/  8/  8 1022.0F
HARRISON CRIB              72     100/ 13/ 14   N/A
BURNHAM HARBOR             72      90/ 10/ 10   N/A
CALUMET HARBOR             72      40/  7/  9 1022.2F
BURNS HARBOR               80     170/  4/ 12 1022.4S
MICHIGAN CITY              74     350/  7/  8   N/A
$$

ILZ025>027-034>036-040-047-049-050-058-095>099-112100-
WEST-CENTRAL ILLINOIS

CITY           SKY/WX    TMP DP  RH WIND       PRES   REMARKS
QUINCY         PTSUNNY   83  68  60 SE16G22   30.07F HX  86
MACOMB*        PTSUNNY   81  68  63 SE12G18   30.11F HX  84
$$

ILZ028>032-037-038-041>044-048-051>054-059>061-112100-
CENTRAL ILLINOIS

CITY           SKY/WX    TMP DP  RH WIND       PRES   REMARKS
DECATUR        PTSUNNY   83  62  49 SE8       30.15F HX  84
PEORIA         MOSUNNY   83  63  50 SE12G17   30.12F HX  84
SPRINGFIELD    MOSUNNY   85  66  53 S10       30.13F HX  87
TAYLORVILLE    NOT AVBL
$$

ILZ033-039-045-046-055>057-062-063-112100-
EAST-CENTRAL ILLINOIS

CITY           SKY/WX    TMP DP  RH WIND       PRES   REMARKS
CHAMPAIGN      MOSUNNY   83  60  45 S7        30.16F HX  83
MATTOON        SUNNY     83  56  39 S8        30.15F HX  82
$$

ILZ079-100>102-112100-
SOUTHWEST ILLINOIS

CITY           SKY/WX    TMP DP  RH WIND       PRES   REMARKS
ALTON          PTSUNNY   84  68  58 SE9       30.13S HX  87
BELLEVILLE     MOSUNNY   86  69  56 S10       30.12F HX  90
CAHOKIA*       MOSUNNY   87  67  51 S10       30.11F HX  90
SPARTA*        MOSUNNY   84  68  58 S10       30.14F HX  87
$$

ILZ064>066-069>071-074>076-080>082-084>086-088>090-092>094-112100-
SOUTH-CENTRAL ILLINOIS

CITY           SKY/WX    TMP DP  RH WIND       PRES   REMARKS
CARBONDALE     MOSUNNY   88  64  44 S9        30.14F HX  89
MT. VERNON     SUNNY     88  66  48 S7        30.15F HX  90
SALEM*         SUNNY     87  62  43 E6        30.15F HX  87
$$

ILZ067-068-072-073-078-083-087-091-112100-
SOUTHEAST ILLINOIS

CITY           SKY/WX    TMP DP  RH WIND       PRES   REMARKS
FLORA*         SUNNY     84  58  40 CALM      30.16F HX  84
HARRISBURG*    SUNNY     86  65  49 E5        30.17S HX  87
$$

ABBREVIATIONS USED IN REMARKS
   TC - TEMPERATURE IN CELSIUS
  WCI - WIND CHILL INDEX
   HX - HEAT INDEX
  VSB - VISIBILITY
$$



USA.gov is the U.S. government's official web portal to all federal, state and local government web resources and services.